Location: Bieg
(49.3499°N, 10.3835°E)
Time: 12:54:14
(UTC+00:00)

Cosmos 1315 Rocket - Pass Details

Date: 23 May 2024
Orbit: 515 x 542 km, 81.2° (Epoch: 24 June)

Event Time Altitude Azimuth Distance (km) Brightness Sun altitude
Exits shadow 01:40:00 20° 234° (SW) 1,261 4.1 -13.0°
Maximum altitude 01:42:08 35° 289° (WNW) 867 3.7 -12.8°
Drops below altitude 10° 01:45:47 10° 356° (N) 1,790 6.2 -12.4°
Sets 01:48:05 0° 6° (N) 2,690 7.4 -12.2°
